Regional Weather Roundup
Issued by NWS Newport/Morehead, NC

Current Version | Previous Version | Text Only | Print | Product List | Glossary On
Versions: 1 2 3 4 5 6 7 8 9 10 11 12 13 14 15 16 17 18 19 20 21 22 23 24 25 26 27 28 29 30 31 32 33 34 35 36 37 38 39 40 41 42 43 44 45 46 47 48 49 50
000
ASUS42 KMHX 281410
RWRMHX
WEATHER ROUNDUP FOR EASTERN NORTH CAROLINA
NATIONAL WEATHER SERVICE NEWPORT/MOREHEAD CITY NC
900 AM EST WED JAN 28 2015

NOTE: "FAIR" INDICATES FEW OR NO CLOUDS BELOW 12,000 FEET
WITH NO SIGNIFICANT WEATHER AND/OR OBSTRUCTIONS TO VISIBILITY

NCZ015>017-031-032-045>047-102-103-281500-
NORTH COAST

CITY           SKY/WX    TMP DP  RH WIND       PRES   REMARKS
EDENTON        SUNNY     31  18  59 N16       30.18R
ELIZABETH CITY SUNNY     31  17  56 N17       30.17R WCI  19
KITTY HAWK     MOSUNNY   33  24  70 NW8G17    30.13R
MANTEO         MOSUNNY   34  25  69 N15G23    30.15R

$$

NCZ045>047-081-094-103-104-281500-
CENTRAL COAST

CITY           SKY/WX    TMP DP  RH WIND       PRES   REMARKS
FRISCO         PTSUNNY   34  26  72 N10G21    30.13R
SWANQUARTER    NOT AVBL

$$

NCZ095-097-098-100-101-281500-
SOUTHERN COAST

CITY           SKY/WX    TMP DP  RH WIND       PRES   REMARKS
BEAUFORT       SUNNY     34  22  61 N17G23    30.16R
CEDAR ISLAND   NOT AVBL
JACKSONVILLE   SUNNY     32  19  58 NW12      30.18R
PINEY ISLAND     N/A    N/A N/A N/A MISG      30.16R
WILMINGTON     SUNNY     32  18  56 N12       30.19R


$$

NCZ011>013-027>030-043-044-078>080-089-090>093-098-281500-
COASTAL PLAIN

CITY           SKY/WX    TMP DP  RH WIND       PRES   REMARKS
AHOSKIE        SUNNY     30  12  48 N10G17    30.21R
CLINTON        SUNNY     32  19  58 N7        30.23R
ELIZABETHTOWN  SUNNY     30  18  59 NW5       30.22R
GOLDSBORO      SUNNY     31  24  73 N8        30.19R
GREENVILLE     SUNNY     32  19  59 N10       30.21R
HAVELOCK       SUNNY     33  21  61 N18G24    30.18R
KENANSVILLE    SUNNY     31  19  59 N7        30.21R
KINSTON        NOT AVBL
NEW BERN       SUNNY     34  18  52 N15G23    30.19R
RICHLANDS      SUNNY     30  18  59 NW6       30.19R
ROCKY MOUNT    SUNNY     32  17  54 N10       30.21R
WASHINGTON     SUNNY     32  16  53 N13       30.19R
WHITEVILLE     SUNNY     32  17  55 N3        30.22R

$$

AMZ130-135-150-152-154-156-158-170-250-252-270-ANZ085-086-088-633-658-670-281500-
MARINE OBSERVATIONS

STATION/POSITION TIME  TEMP    WIND        PRES    WAVE   SWELL
                       AIR SEA DIR/SP/G            HT/PER HT/PER
                 (UTC) (F)     (DEG/KT/KT) (MB)    (FT/S) (FT/S)
CHESAPEAKE LIGHT NOT AVBL
64 E VA BEACH    1400   35 51  350/ 23/ 29 1018.6   11/13   8/13
DUCK             1400   32 42  330/ 20/ 23 1019.6
2 E DUCK         1400      42                N/A     7/11   3/11
10 NE DUCK       1400      45                N/A    10/13   5/13
OREGON INLET     1400   34 42  340/ 16/ 22 1020.1
13E OREGON INLT  1400      45                N/A    10/13   5/13
HATTERAS CG      1400   34 47  360/ 21/ 24 1020.4
DIAMOND BUOY     1400   38 68  350/ 23/ 31 1018.7    8/12   7/12
17 S OCRACOKE    NOT AVBL
CAPE LOOKOUT     1300   33     340/ 17/ 20 1019.8
BEAUFORT LAB     1400   34 47   10/ 16/ 20 1020.1
27 SE WRIGHTSVLE NOT AVBL
5 SE WRIGHTSVLE  1300   35 53  350/ 19/ 25 1020.9
225 S CAPE HAT   1346   57 71  300/ 21/ 29 1016.0   10/ 8   5/14
41 SE CHARLESTON 1400   42 67  350/ 21/ 27 1021.4    6/ 6   3/11

$$


USA.gov is the U.S. government's official web portal to all federal, state and local government web resources and services.